Location: Hanover
(52.3667°N, 9.7167°E)
Time: 04:48:43
(UTC+02:00)

Envisat - Pass Details

Date: 24 September 2024
Orbit: 762 x 764 km, 98.3° (Epoch: 04 October)

Event Time Altitude Azimuth Distance (km) Brightness Sun altitude
Rises 03:45:01 0° 21° (NNE) 3,239 7.2 -29.3°
Reaches altitude 10° 03:47:36 10° 33° (NNE) 2,308 6.4 -29.0°
Maximum altitude 03:52:03 30° 94° (E) 1,347 4.6 -28.6°
Enters shadow 03:54:02 23° 132° (SE) 1,581 4.6 -28.3°
